[[{"header":{"parameterUnit":"m.s-1","parameterCategory":1,"la1":30.2991,"la2":30.254,"lo1":-89.0895,"lo2":-89.0444,"dx":0.0017,"dy":0.0017,"nx":28,"ny":28,"refTime":"2022-12-29T09:00:00:Z","depth":0,"parameterNumber":2,"parameterNumberName":"U-component_of_WINDS"},"data":[0,0,0,0,0,0,0,0,0,0,0,0,0,0,0,0,0,0,0,0,0,0,0,0,0,0,0,0,0,0,0,0,0,0,0,0,0,0,0,0,0,0,0,0,0,0,0,0,0,0,0,0,0,0,0,0,0,0,-4.5056,-4.5058,0,-4.5205,-4.5207,-4.5208,-4.5261,-4.5261,-4.526,-4.526,-4.5411,-4.5416,-4.542,0,0,0,0,0,0,0,0,0,0,0,0,0,-4.4817,-4.4821,-4.5056,-4.5058,-4.506,-4.5205,-4.5207,-4.5209,-4.5261,-4.5261,-4.526,-4.5259,-4.541,-4.5415,-4.5421,0,0,0,0,0,0,0,0,0,0,0,0,0,-4.4939,-4.4822,-4.5056,-4.5103,-4.5109,-4.5204,-4.5207,-4.5209,-4.5261,-4.5261,-4.526,-4.5259,-4.5408,-4.5415,-4.5422,-4.548,0,0,-4.5442,-4.5445,0,0,0,0,0,0,0,0,-4.4932,-4.4947,-4.5095,-4.51,-4.5107,-4.5214,-4.5178,-4.53,-4.5262,-4.5204,-4.5259,-4.5259,-4.5346,-4.5358,-4.5388,-4.5487,-4.5494,-4.5443,-4.5447,-4.545,-4.5452,0,0,0,0,0,0,0,-4.4923,-4.4941,-4.5115,-4.5097,-4.5104,-4.5117,-4.5134,-4.5202,-4.5278,-4.5209,-4.5213,-4.523,-4.535,-4.5381,-4.5392,-4.5496,-4.5443,-4.5449,-4.5453,-4.5456,-4.5651,-4.5652,0,0,0,0,0,0,-4.4907,-4.4934,-4.511,-4.512,-4.5016,-4.5122,-4.5141,-4.518,-4.5277,-4.5291,-4.523,-4.5232,-4.537,-4.5384,-4.5397,-4.5472,-4.545,-4.5456,-4.546,-4.565,-4.5651,-4.5652,0,0,0,0,0,0,-4.4901,-4.4922,-4.5104,-4.5028,-4.5052,-4.5127,-4.5171,-4.5184,-4.5215,-4.5293,-4.5307,-4.5249,-4.537,-4.5388,-4.5459,-4.5478,-4.546,-4.5466,-4.5648,-4.565,-4.5651,-4.5621,0,0,0,0,0,0,-4.4894,-4.492,-4.4943,-4.5028,-4.5056,-4.5163,-4.5173,-4.5187,-4.5227,-4.523,-4.5314,-4.5327,-4.5371,-4.5449,-4.5466,-4.5487,-4.5471,-4.5647,-4.5649,-4.5651,-4.5621,-4.5622,-4.5622,0,0,0,0,0,-4.4886,-4.4928,-4.4944,-4.4965,-4.5086,-4.5164,-4.518,-4.5229,-4.5228,-4.5252,-4.5302,-4.5325,-4.5473,-4.5455,-4.5475,-4.5499,-4.5646,-4.5648,-4.5651,-4.562,-4.5621,-4.5622,0,0,0,0,0,0,-4.4843,-4.494,-4.4958,-4.503,-4.5089,-4.5173,-4.5204,-4.5229,-4.5289,-4.5289,-4.5347,-4.5366,-4.5432,-4.5473,-4.5451,-4.556,-4.5561,-4.5567,-4.5531,-4.5533,-4.5533,-4.5522,-4.5477,0,0,0,0,0,-4.4842,-4.4897,-4.498,-4.5035,-4.5063,-4.5129,-4.5165,-4.5197,-4.526,-4.5285,-4.5341,-4.5401,-4.5461,-4.5499,-4.5559,-4.5627,-4.5646,-4.5653,-4.5654,-4.5654,-4.5659,-4.5698,-4.5701,-4.566,-4.566,-4.566,0,0,-4.484,-4.49,-4.4932,-4.5028,-4.5077,-4.5133,-4.5149,-4.5208,-4.5249,-4.5294,-4.5364,-4.5407,-4.5478,-4.5548,-4.5582,-4.5584,-4.5675,-4.5657,-4.5657,-4.5662,-4.57,-4.5704,-4.5708,-4.5662,-4.5661,-4.5661,0,0,-4.4866,-4.4917,-4.4968,-4.5017,-4.5092,-4.5135,-4.5147,-4.5229,-4.5259,-4.5331,-4.5365,-4.5416,-4.5519,-4.5568,-4.5606,-4.565,-4.5673,-4.5668,-4.5671,-4.5708,-4.5711,-4.5715,-4.573,-4.5734,-4.5673,-4.5673,-4.5673,0,-4.4854,-4.494,-4.4992,-4.5048,-4.5089,-4.5133,-4.5185,-4.523,-4.532,-4.5347,-4.5349,-4.5478,-4.5529,-4.5611,-4.5621,-4.5652,-4.5667,-4.5658,-4.5707,-4.5711,-4.5714,-4.5729,-4.5735,-4.5671,-4.5672,-4.5672,-4.5672,0,-4.4921,-4.498,-4.5013,-4.5098,-4.5143,-4.5197,-4.5257,-4.5297,-4.5326,-4.5369,-4.5441,-4.5504,-4.5577,-4.5599,-4.5628,-4.5685,-4.5684,-4.5696,-4.5697,-4.5716,-4.5731,-4.5737,-4.567,-4.567,-4.567,-4.5671,0,0,-4.4923,-4.5037,-4.5048,-4.5087,-4.5173,-4.5219,-4.5275,-4.5347,-4.5379,-4.544,-4.5488,-4.5574,-4.5585,-4.5629,-4.5664,-4.5696,-4.5727,-4.5704,-4.5707,-4.5705,-4.5793,-4.5783,-4.5789,-4.5743,-4.5744,-4.5745,-4.5787,0,-4.4958,-4.506,-4.5109,-4.519,-4.5244,-4.5286,-4.5335,-4.5393,-4.5435,-4.5487,-4.5534,-4.5594,-4.5605,-4.5631,-4.5665,-4.5716,-4.5745,-4.5714,-4.5788,-4.579,-4.5767,-4.5797,-4.5786,-4.5822,-4.5793,-4.5794,-4.5795,0,-4.5013,-4.5074,-4.516,-4.5239,-4.5263,-4.5306,-4.5376,-4.5426,-4.5492,-4.552,-4.5569,-4.5603,-4.5663,-4.5661,-4.5746,-4.5723,-4.5757,-4.5786,-4.5789,-4.5796,-4.5792,-4.5804,-4.5835,-4.584,-4.5805,-4.5804,-4.5803,0,-4.5005,-4.5108,-4.5172,-4.5205,-4.5299,-4.5328,-4.5368,-4.5434,-4.5474,-4.5535,-4.5561,-4.5628,-4.5665,-4.5716,-4.5767,-4.5761,-4.5846,-4.5848,-4.5871,-4.5869,-4.5886,-4.5884,-4.5921,-4.5909,-4.5909,-4.5909,-4.5909,0,-4.5039,-4.5089,-4.517,-4.5209,-4.5267,-4.5323,-4.5379,-4.5422,-4.548,-4.5529,-4.557,-4.5615,-4.568,-4.5734,-4.5774,-4.5837,-4.5854,-4.5878,-4.5888,-4.5874,-4.587,-4.5895,-4.5894,-4.591,-4.591,-4.591,-4.5909,0,-4.5038,-4.5094,-4.5167,-4.525,-4.5272,-4.5311,-4.5382,-4.5422,-4.5467,-4.5528,-4.5545,-4.5615,-4.568,-4.5736,-4.5822,-4.5849,-4.5913,-4.5926,-4.5891,-4.5896,-4.5915,-4.5912,-4.5969,-4.5979,-4.596,-4.596,-4.596,0,-4.5055,-4.5095,-4.5183,-4.5218,-4.5258,-4.5315,-4.5356,-4.5412,-4.5453,-4.5532,-4.5562,-4.563,-4.5687,-4.5789,-4.5847,-4.5912,-4.5926,-4.5942,-4.5936,-4.5921,-4.5926,-4.5922,-4.5926,-4.5941,-4.5941,-4.5941,-4.5941,0,-4.508,-4.5106,-4.5163,-4.5231,-4.5278,-4.5334,-4.5391,-4.5418,-4.5485,-4.5529,-4.5595,-4.564,-4.5727,-4.5794,-4.5866,-4.5908,-4.5935,-4.5943,-4.5951,-4.5936,-4.5914,-4.5926,-4.589,-4.5941,-4.5941,-4.5941,-4.5941,-4.5941,-4.5089,-4.5126,-4.5193,-4.5256,-4.5304,-4.5357,-4.5398,-4.5448,-4.5504,-4.558,-4.561,-4.5678,-4.5743,-4.5843,-4.5885,-4.5939,-4.5943,-4.5956,-4.5959,-4.5961,-4.5958,-4.5906,-4.5952,-4.5952,-4.5953,-4.5953,-4.5953,0,-4.5115,-4.516,-4.5217,-4.5295,-4.5344,-4.5367,-4.5431,-4.5471,-4.553,-4.5589,-4.5644,-4.572,-4.5785,-4.5849,-4.5917,-4.5948,-4.5962,-4.5964,-4.5962,-4.5971,-4.595,-4.5936,-4.5951,-4.5951,-4.5951,-4.5951,-4.5951,-4.5951,-4.5134,-4.5198,-4.5232,-4.532,-4.5366,-4.5432,-4.5467,-4.5515,-4.5562,-4.5646,-4.57,-4.5741,-4.5802,-4.5875,-4.5935,-4.5953,-4.5975,-4.5973,-4.5993,-4.5973,-4.5972,-4.5972,-4.5958,-4.5978,-4.5978,-4.6009,-4.601,-4.601]},{"header":{"parameterUnit":"m.s-1","parameterCategory":1,"la1":30.2991,"la2":30.254,"lo1":-89.0895,"lo2":-89.0444,"dx":0.0017,"dy":0.0017,"nx":28,"ny":28,"refTime":"2022-12-29T09:00:00:Z","depth":0,"parameterNumber":3,"parameterNumberName":"V-component_of_WINDS"},"data":[0,0,0,0,0,0,0,0,0,0,0,0,0,0,0,0,0,0,0,0,0,0,0,0,0,0,0,0,0,0,0,0,0,0,0,0,0,0,0,0,0,0,0,0,0,0,0,0,0,0,0,0,0,0,0,0,0,0,5.0154,5.0154,0,5.0176,5.0177,5.0177,5.0148,5.0147,5.0146,5.0145,5.0168,5.0169,5.0171,0,0,0,0,0,0,0,0,0,0,0,0,0,5.0086,5.0087,5.0154,5.0154,5.0154,5.0176,5.0177,5.0177,5.0148,5.0147,5.0146,5.0144,5.0167,5.0169,5.0171,0,0,0,0,0,0,0,0,0,0,0,0,0,5.0112,5.0087,5.0153,5.0142,5.0142,5.0176,5.0177,5.0177,5.0148,5.0147,5.0145,5.0144,5.0166,5.0169,5.0171,5.0217,0,0,5.0178,5.0179,0,0,0,0,0,0,0,0,5.0111,5.0115,5.0144,5.0143,5.0142,5.0158,5.0161,5.0191,5.0149,5.0146,5.0145,5.0143,5.0166,5.0168,5.0176,5.0219,5.0219,5.0179,5.018,5.0181,5.0182,0,0,0,0,0,0,0,5.0109,5.0114,5.0163,5.0144,5.0143,5.0137,5.0139,5.0167,5.0164,5.0146,5.0144,5.0147,5.0165,5.0173,5.0176,5.022,5.0179,5.0181,5.0182,5.0183,5.0305,5.0307,0,0,0,0,0,0,5.0109,5.0112,5.0162,5.0163,5.0123,5.0139,5.0141,5.0154,5.0164,5.0164,5.0148,5.0146,5.017,5.0173,5.0177,5.0235,5.0181,5.0183,5.0185,5.0304,5.0306,5.0308,0,0,0,0,0,0,5.0107,5.0113,5.0161,5.0137,5.0143,5.0142,5.0157,5.0156,5.0164,5.0166,5.0165,5.0158,5.0169,5.0173,5.0208,5.0235,5.0184,5.0186,5.0301,5.0304,5.0307,5.0349,0,0,0,0,0,0,5.0105,5.0113,5.013,5.0138,5.0144,5.0192,5.0158,5.0157,5.0169,5.0165,5.0174,5.0174,5.0168,5.0205,5.0211,5.0237,5.0188,5.0299,5.0303,5.0306,5.0345,5.0353,5.0359,0,0,0,0,0,5.0103,5.014,5.0131,5.0137,5.0166,5.0194,5.0197,5.019,5.0171,5.0189,5.019,5.0174,5.023,5.0209,5.0215,5.0243,5.0297,5.0302,5.0306,5.0342,5.0351,5.0359,0,0,0,0,0,0,5.0135,5.0141,5.0131,5.0172,5.0183,5.0189,5.0211,5.0199,5.0215,5.0212,5.0201,5.0203,5.0242,5.0245,5.0221,5.029,5.0261,5.0266,5.0286,5.0295,5.0302,5.0302,5.019,0,0,0,0,0,5.0147,5.0169,5.0173,5.0208,5.0214,5.0212,5.0224,5.0217,5.0228,5.0232,5.0236,5.0247,5.0267,5.0281,5.0299,5.0345,5.0348,5.0367,5.0374,5.038,5.0385,5.0413,5.0422,5.0321,5.0321,5.0321,0,0,5.0171,5.0177,5.0192,5.0215,5.0223,5.0247,5.0216,5.0242,5.026,5.0236,5.0271,5.0273,5.0285,5.0326,5.0345,5.033,5.0414,5.0385,5.0389,5.0392,5.0418,5.0428,5.0436,5.0324,5.0323,5.0323,0,0,5.023,5.0235,5.0267,5.0276,5.0288,5.0286,5.0294,5.0302,5.0304,5.0338,5.0322,5.0343,5.0377,5.0388,5.0397,5.0461,5.0448,5.0467,5.0505,5.0532,5.054,5.0547,5.0573,5.0582,5.0472,5.0472,5.0472,0,5.0259,5.0294,5.0285,5.0313,5.0325,5.0305,5.0338,5.0347,5.0364,5.0373,5.0357,5.0402,5.0408,5.0453,5.0469,5.0476,5.0486,5.0467,5.0539,5.0546,5.0553,5.0577,5.0587,5.0475,5.0474,5.0474,5.0474,0,5.0331,5.0356,5.0381,5.04,5.0414,5.0444,5.0441,5.0456,5.0448,5.0449,5.0485,5.0492,5.0513,5.0523,5.0514,5.0567,5.0559,5.0541,5.0512,5.0565,5.0588,5.0597,5.0478,5.0477,5.0477,5.0476,0,0,5.0411,5.0426,5.0435,5.0445,5.0458,5.0477,5.0507,5.0529,5.0544,5.0556,5.0583,5.0613,5.0598,5.0609,5.0601,5.0625,5.0679,5.0604,5.0604,5.0621,5.0742,5.0758,5.0769,5.0669,5.0671,5.0672,5.0742,0,5.0472,5.0525,5.0519,5.057,5.0595,5.0576,5.0603,5.0614,5.0615,5.0636,5.0637,5.0661,5.0636,5.0643,5.0665,5.0668,5.0704,5.0662,5.0696,5.0697,5.0697,5.078,5.0797,5.0862,5.075,5.0752,5.0753,0,5.0551,5.0568,5.0623,5.0634,5.0644,5.0668,5.0689,5.0709,5.0721,5.0721,5.0734,5.0723,5.0755,5.0724,5.0768,5.074,5.0753,5.0757,5.0759,5.0765,5.0731,5.0791,5.0882,5.0894,5.0767,5.0765,5.0764,0,5.0608,5.0645,5.0683,5.0691,5.0705,5.0723,5.0729,5.074,5.0754,5.0772,5.0781,5.0802,5.0814,5.083,5.0826,5.0803,5.0873,5.084,5.0875,5.0876,5.0893,5.0893,5.0991,5.0896,5.0896,5.0895,5.0895,0,5.0679,5.0714,5.071,5.0734,5.0773,5.0764,5.0803,5.0807,5.0817,5.0842,5.0826,5.085,5.0841,5.0865,5.0861,5.09,5.0905,5.0907,5.0906,5.091,5.0911,5.0921,5.0918,5.0898,5.0897,5.0897,5.0896,0,5.0751,5.0749,5.079,5.08,5.0803,5.0832,5.0841,5.0864,5.0863,5.0896,5.0902,5.0903,5.093,5.0926,5.0956,5.0954,5.1004,5.0996,5.1,5.1,5.1036,5.1034,5.1148,5.1164,5.1055,5.1055,5.1056,0,5.0799,5.0825,5.0838,5.0855,5.0863,5.0888,5.0903,5.0896,5.0912,5.093,5.0951,5.0977,5.0997,5.1042,5.1045,5.1068,5.1063,5.1101,5.1066,5.1071,5.1068,5.1068,5.1072,5.1109,5.111,5.1111,5.1112,0,5.0884,5.0882,5.0905,5.0928,5.0946,5.0964,5.0979,5.0993,5.0987,5.1007,5.1035,5.1051,5.1082,5.1109,5.1131,5.1138,5.1125,5.1122,5.1132,5.1139,5.1142,5.1145,5.1023,5.112,5.1119,5.1119,5.1118,5.1118,5.0948,5.0972,5.0986,5.1012,5.1023,5.1039,5.1062,5.1066,5.1089,5.1115,5.1108,5.1141,5.1155,5.1183,5.1192,5.1218,5.1205,5.1218,5.1222,5.1227,5.1233,5.1135,5.1222,5.1221,5.1221,5.1221,5.1221,0,5.1036,5.1044,5.1068,5.1092,5.1113,5.1098,5.1115,5.1134,5.1163,5.1177,5.1198,5.1232,5.1258,5.1263,5.1288,5.1308,5.1303,5.1316,5.1316,5.1319,5.1242,5.1232,5.132,5.132,5.132,5.132,5.1319,5.1319,5.1084,5.1126,5.1126,5.1173,5.1181,5.1214,5.1225,5.124,5.1251,5.129,5.1312,5.1315,5.1327,5.1353,5.1377,5.1378,5.1389,5.1405,5.1404,5.1333,5.1323,5.1314,5.1306,5.1407,5.1407,5.1479,5.148,5.148]}]]